,,,PA_Meas_PMT16A,,PR_Meas_QMR101_102,,RH_Meas_QMH101,,SR_Meas_QMS101,,TA_Meas_QMH101,,GenWind,,GenWind,
date,time,status,PA,status,PR,status,RH,status,SR,status,TA,status,DirAvg,status,SpdAvg,
2011-12-22, 00:00:05,VALID,1000.13,VALID,0,VALID,87.6558,VALID,0,VALID,26.2349,VALID,349,VALID,0.499609,
2011-12-22, 00:01:05,VALID,1000.09,VALID,0,VALID,87.755,VALID,0,VALID,26.2154,VALID,349,VALID,0.575781,
2011-12-22, 00:02:05,VALID,1000.07,VALID,0,VALID,87.7245,VALID,0,VALID,26.2154,VALID,349,VALID,0.737109,
2011-12-22, 00:03:05,VALID,1000.08,VALID,0,VALID,87.7703,VALID,0,VALID,26.2154,VALID,351,VALID,0.509766,
2011-12-22, 00:04:04,VALID,1000.09,VALID,0,VALID,87.8618,VALID,0.0815089,VALID,26.194,VALID,352,VALID,0.230078,
2011-12-22, 00:05:04,VALID,1000.1,VALID,0,VALID,87.694,VALID,0,VALID,26.194,VALID,351,VALID,0.835156,
2011-12-22, 00:06:04,VALID,1000.1,VALID,0,VALID,87.9305,VALID,0,VALID,26.2349,VALID,351,VALID,0.0898438,
2011-12-22, 00:07:04,VALID,1000.09,VALID,0,VALID,87.9152,VALID,0,VALID,26.2349,VALID,348,VALID,0.205859,
2011-12-22, 00:08:04,VALID,1000.05,VALID,0,VALID,87.8237,VALID,0,VALID,26.194,VALID,348,VALID,0.168359,
2011-12-22, 00:09:04,VALID,1000.04,VALID,0,VALID,87.6558,VALID,0,VALID,26.2154,VALID,353,VALID,0.848047,
2011-12-22, 00:10:04,VALID,1000.04,VALID,0,VALID,87.7932,VALID,0,VALID,26.194,VALID,343,VALID,0.946094,
2011-12-22, 00:11:04,VALID,1000,VALID,0,VALID,87.6863,VALID,0,VALID,26.2134,VALID,351,VALID,0.966406,
2011-12-22, 00:12:04,VALID,999.999,VALID,0,VALID,87.6177,VALID,0,VALID,26.2154,VALID,355,VALID,0.821094,
2011-12-22, 00:13:04,VALID,999.988,VALID,0,VALID,87.8618,VALID,0,VALID,26.194,VALID,353,VALID,0.653516,
2011-12-22, 00:14:04,VALID,999.96,VALID,0,VALID,87.8008,VALID,0,VALID,26.2154,VALID,332,VALID,0.90625,
2011-12-22, 00:15:04,VALID,999.991,VALID,0,VALID,87.8542,VALID,0,VALID,26.1745,VALID,355,VALID,0.863281,
2011-12-22, 00:16:04,VALID,999.951,VALID,0,VALID,87.9915,VALID,0,VALID,26.1959,VALID,347,VALID,0.710938,
2011-12-22, 00:17:04,VALID,999.982,VALID,0,VALID,88.0983,VALID,0.0815089,VALID,26.1765,VALID,350,VALID,0.716406,
2011-12-22, 00:18:04,VALID,999.956,VALID,0,VALID,88.0525,VALID,0,VALID,26.1355,VALID,345,VALID,0.746094,
2011-12-22, 00:19:04,VALID,999.95,VALID,0,VALID,88.0983,VALID,0,VALID,26.157,VALID,329,VALID,0.68125,
2011-12-22, 00:20:04,VALID,999.919,VALID,0,VALID,88.2051,VALID,0,VALID,26.157,VALID,344,VALID,0.570703,
2011-12-22, 00:21:04,VALID,999.905,VALID,0,VALID,88.1822,VALID,0,VALID,26.157,VALID,353,VALID,0.546484,
2011-12-22, 00:22:04,VALID,999.887,VALID,0,VALID,88.1746,VALID,0,VALID,26.1355,VALID,357,VALID,0.549219,
2011-12-22, 00:23:04,VALID,999.866,VALID,0,VALID,87.9686,VALID,0,VALID,26.157,VALID,347,VALID,0.870313,
2011-12-22, 00:24:04,VALID,999.856,VALID,0,VALID,87.9534,VALID,0,VALID,26.155,VALID,344,VALID,1.30781,
2011-12-22, 00:25:04,VALID,999.82,VALID,0,VALID,87.8771,VALID,0,VALID,26.1765,VALID,347,VALID,0.835156,
2011-12-22, 00:26:04,VALID,999.797,VALID,0,VALID,87.8542,VALID,0.0815089,VALID,26.1765,VALID,356,VALID,1.05586,
2011-12-22, 00:27:04,VALID,999.767,VALID,0,VALID,87.8771,VALID,0,VALID,26.157,VALID,325,VALID,0.635547,
2011-12-22, 00:28:04,VALID,999.724,VALID,0,VALID,87.7932,VALID,0,VALID,26.155,VALID,358,VALID,1.61016,
2011-12-22, 00:29:04,VALID,999.697,VALID,0,VALID,87.7779,VALID,0,VALID,26.157,VALID,346,VALID,1.14727,
2011-12-22, 00:30:04,VALID,999.638,VALID,0,VALID,87.8313,VALID,0,VALID,26.159,VALID,350,VALID,1.71914,
2011-12-22, 00:31:04,VALID,999.676,VALID,0,VALID,87.7398,VALID,0,VALID,26.155,VALID,345,VALID,1.44258,
2011-12-22, 00:32:04,VALID,999.651,VALID,0,VALID,87.7779,VALID,0,VALID,26.1765,VALID,349,VALID,0.902734,
2011-12-22, 00:33:04,VALID,999.625,VALID,0,VALID,87.694,VALID,0,VALID,26.1765,VALID,350,VALID,1.27656,
2011-12-22, 00:34:04,VALID,999.604,VALID,0,VALID,87.6863,VALID,0,VALID,26.1765,VALID,351,VALID,1.85039,
2011-12-22, 00:35:04,VALID,999.584,VALID,0,VALID,87.6635,VALID,0,VALID,26.1959,VALID,350,VALID,1.15117,
2011-12-22, 00:36:04,VALID,999.577,VALID,0,VALID,87.7626,VALID,0.0815089,VALID,26.1959,VALID,337,VALID,0.763281,
2011-12-22, 00:37:04,VALID,999.576,VALID,0,VALID,87.8008,VALID,0,VALID,26.155,VALID,5,VALID,1.04648,
2011-12-22, 00:38:04,VALID,999.533,VALID,0,VALID,87.7855,VALID,0,VALID,26.1959,VALID,339,VALID,1.15469,
2011-12-22, 00:39:04,VALID,999.536,VALID,0,VALID,87.816,VALID,0,VALID,26.1765,VALID,347,VALID,0.628125,
2011-12-22, 00:40:04,VALID,999.498,VALID,0,VALID,87.7474,VALID,0,VALID,26.1765,VALID,347,VALID,1.35078,
2011-12-22, 00:41:04,VALID,999.469,VALID,0,VALID,87.7703,VALID,0,VALID,26.2154,VALID,346,VALID,0.623047,
2011-12-22, 00:42:04,VALID,999.441,VALID,0,VALID,87.6329,VALID,0,VALID,26.1745,VALID,324,VALID,1.38828,
2011-12-22, 00:43:04,VALID,999.419,VALID,0,VALID,87.5643,VALID,0,VALID,26.1959,VALID,343,VALID,1.58281,
2011-12-22, 00:44:04,VALID,999.411,VALID,0,VALID,87.6711,VALID,0,VALID,26.2154,VALID,356,VALID,0.834375,
2011-12-22, 00:45:04,VALID,999.417,VALID,0,VALID,87.6177,VALID,0,VALID,26.1959,VALID,351,VALID,0.981641,
2011-12-22, 00:46:04,VALID,999.43,VALID,0,VALID,87.694,VALID,0,VALID,26.1959,VALID,348,VALID,0.866406,
2011-12-22, 00:47:04,VALID,999.392,VALID,0,VALID,87.8237,VALID,0,VALID,26.1765,VALID,346,VALID,0.564062,
2011-12-22, 00:48:04,VALID,999.392,VALID,0,VALID,87.9457,VALID,0,VALID,26.157,VALID,346,VALID,0.5625,
2011-12-22, 00:49:04,VALID,999.41,VALID,0,VALID,88.0296,VALID,0,VALID,26.1375,VALID,355,VALID,0.592188,
2011-12-22, 00:50:04,VALID,999.447,VALID,0,VALID,88.1746,VALID,0,VALID,26.0985,VALID,351,VALID,1.09336,
2011-12-22, 00:51:04,VALID,999.42,VALID,0,VALID,88.1822,VALID,0,VALID,26.0985,VALID,336,VALID,0.795703,
2011-12-22, 00:52:04,VALID,999.421,VALID,0,VALID,88.2585,VALID,0,VALID,26.0771,VALID,346,VALID,0.709375,
2011-12-22, 00:53:04,VALID,999.466,VALID,0,VALID,88.2356,VALID,0,VALID,26.0791,VALID,341,VALID,1.0957,
2011-12-22, 00:54:04,VALID,999.505,VALID,0,VALID,88.2967,VALID,0,VALID,26.0791,VALID,350,VALID,0.966406,
2011-12-22, 00:55:04,VALID,999.52,VALID,0,VALID,88.3119,VALID,0,VALID,26.0616,VALID,344,VALID,1.26992,
2011-12-22, 00:56:04,VALID,999.534,VALID,0,VALID,88.3501,VALID,0,VALID,26.0401,VALID,343,VALID,0.400781,
2011-12-22, 00:57:04,VALID,999.519,VALID,0,VALID,88.4264,VALID,0,VALID,26.0401,VALID,167,VALID,0.445703,
2011-12-22, 00:58:04,VALID,999.54,VALID,0,VALID,88.4645,VALID,0,VALID,26.0206,VALID,44,VALID,0.461328,
2011-12-22, 00:59:04,VALID,999.518,VALID,0,VALID,88.4111,VALID,0,VALID,26.0616,VALID,12,VALID,0.680469,
2011-12-22, 01:00:04,VALID,999.506,VALID,0,VALID,88.3806,VALID,0,VALID,26.0401,VALID,3,VALID,0.776563,
2011-12-22, 01:01:04,VALID,999.502,VALID,0,VALID,88.3882,VALID,0,VALID,26.0401,VALID,287,VALID,0.745313,
2011-12-22, 01:02:04,VALID,999.507,VALID,0,VALID,88.3958,VALID,0,VALID,26.0616,VALID,355,VALID,0.689062,
2011-12-22, 01:03:04,VALID,999.506,VALID,0,VALID,88.4264,VALID,0,VALID,26.0596,VALID,356,VALID,0.541797,
2011-12-22, 01:04:04,VALID,999.521,VALID,0,VALID,88.3577,VALID,0,VALID,26.081,VALID,354,VALID,0.496875,
2011-12-22, 01:05:04,VALID,999.558,VALID,0,VALID,88.3729,VALID,0,VALID,26.0596,VALID,354,VALID,0.105469,
2011-12-22, 01:06:04,VALID,999.549,VALID,0,VALID,88.3272,VALID,0,VALID,26.0596,VALID,323,VALID,0.719531,
2011-12-22, 01:07:04,VALID,999.583,VALID,0,VALID,88.2967,VALID,0,VALID,26.0596,VALID,359,VALID,0.580078,
2011-12-22, 01:08:04,VALID,999.569,VALID,0,VALID,88.2738,VALID,0,VALID,26.0401,VALID,1,VALID,0.466797,
2011-12-22, 01:09:04,VALID,999.592,VALID,0,VALID,88.2661,VALID,0,VALID,26.0596,VALID,344,VALID,0.582031,
2011-12-22, 01:10:04,VALID,999.608,VALID,0,VALID,88.2585,VALID,0,VALID,26.0596,VALID,356,VALID,1.0668,
2011-12-22, 01:11:04,VALID,999.589,VALID,0,VALID,88.228,VALID,0,VALID,26.0791,VALID,348,VALID,0.814844,
2011-12-22, 01:12:04,VALID,999.592,VALID,0,VALID,88.2738,VALID,0,VALID,26.0596,VALID,348,VALID,0.694141,
2011-12-22, 01:13:04,VALID,999.57,VALID,0,VALID,88.3424,VALID,0,VALID,26.0401,VALID,349,VALID,0.307031,
2011-12-22, 01:14:04,VALID,999.535,VALID,0,VALID,88.4035,VALID,0,VALID,26.0187,VALID,349,VALID,0.414453,
2011-12-22, 01:15:04,VALID,999.535,VALID,0,VALID,88.4721,VALID,0,VALID,26.0421,VALID,310,VALID,0.410937,
2011-12-22, 01:16:04,VALID,999.497,VALID,0,VALID,88.5332,VALID,0,VALID,26.0206,VALID,343,VALID,0.592969,
2011-12-22, 01:17:04,VALID,999.467,VALID,0,VALID,88.556,VALID,0,VALID,25.9797,VALID,355,VALID,0.591406,
2011-12-22, 01:18:04,VALID,999.461,VALID,0,VALID,88.6247,VALID,0,VALID,26.0226,VALID,347,VALID,0.751172,
2011-12-22, 01:19:04,VALID,999.455,VALID,0,VALID,88.6628,VALID,0,VALID,26.0012,VALID,360,VALID,1.10117,
2011-12-22, 01:20:04,VALID,999.46,VALID,0,VALID,88.701,VALID,0,VALID,25.9817,VALID,341,VALID,0.71875,
2011-12-22, 01:21:04,VALID,999.403,VALID,0,VALID,88.7773,VALID,0,VALID,25.9817,VALID,356,VALID,0.723437,
2011-12-22, 01:22:04,VALID,999.388,VALID,0,VALID,88.8536,VALID,0,VALID,25.9622,VALID,351,VALID,0.632813,
2011-12-22, 01:23:04,VALID,999.382,VALID,0,VALID,88.8002,VALID,0,VALID,25.9817,VALID,340,VALID,0.698047,
2011-12-22, 01:24:04,VALID,999.337,VALID,0,VALID,88.8154,VALID,0,VALID,26.0012,VALID,354,VALID,0.760547,
2011-12-22, 01:25:04,VALID,999.312,VALID,0,VALID,88.6628,VALID,0,VALID,25.9797,VALID,338,VALID,1.13633,
2011-12-22, 01:26:04,VALID,999.31,VALID,0,VALID,88.6323,VALID,0,VALID,26.0206,VALID,348,VALID,0.800391,
2011-12-22, 01:27:04,VALID,999.265,VALID,0,VALID,88.6476,VALID,0,VALID,26.0421,VALID,343,VALID,0.935156,
2011-12-22, 01:28:04,VALID,999.262,VALID,0,VALID,88.5179,VALID,0,VALID,26.0401,VALID,359,VALID,0.944141,
2011-12-22, 01:29:04,VALID,999.226,VALID,0,VALID,88.5637,VALID,0,VALID,26.0596,VALID,354,VALID,1.0043,
2011-12-22, 01:30:04,VALID,999.192,VALID,0,VALID,88.5179,VALID,0,VALID,26.0596,VALID,347,VALID,0.767187,
2011-12-22, 01:31:04,VALID,999.141,VALID,0,VALID,88.5942,VALID,0,VALID,26.0401,VALID,346,VALID,0.7375,
2011-12-22, 01:32:04,VALID,999.122,VALID,0,VALID,88.6857,VALID,0,VALID,26.0401,VALID,351,VALID,0.482812,
2011-12-22, 01:33:04,VALID,999.088,VALID,0,VALID,88.7239,VALID,0,VALID,26.0206,VALID,354,VALID,0.608594,
2011-12-22, 01:34:04,VALID,999.081,VALID,0,VALID,88.8841,VALID,0,VALID,26.0401,VALID,357,VALID,0.492969,
2011-12-22, 01:35:04,VALID,999.086,VALID,0,VALID,88.5332,VALID,0,VALID,26.0596,VALID,342,VALID,1.5707,
2011-12-22, 01:36:04,VALID,999.002,VALID,0,VALID,88.289,VALID,0,VALID,26.118,VALID,357,VALID,0.922266,
2011-12-22, 01:37:04,VALID,998.988,VALID,0,VALID,88.0983,VALID,0,VALID,26.1784,VALID,357,VALID,1.03516,
2011-12-22, 01:38:04,VALID,998.94,VALID,0,VALID,87.9915,VALID,0,VALID,26.1765,VALID,358,VALID,0.832422,
2011-12-22, 01:39:04,VALID,998.904,VALID,0,VALID,87.9839,VALID,0,VALID,26.1765,VALID,10,VALID,0.848047,
2011-12-22, 01:40:04,VALID,998.844,VALID,0,VALID,87.9076,VALID,0,VALID,26.1765,VALID,359,VALID,1.10938,
2011-12-22, 01:41:04,VALID,998.816,VALID,0,VALID,87.6863,VALID,0,VALID,26.1765,VALID,339,VALID,1.2125,
2011-12-22, 01:42:04,VALID,998.831,VALID,0,VALID,87.5338,VALID,0,VALID,26.155,VALID,297,VALID,0.832812,
2011-12-22, 01:43:04,VALID,998.794,VALID,0,VALID,87.5948,VALID,0,VALID,26.1745,VALID,349,VALID,1.09258,
2011-12-22, 01:44:04,VALID,998.806,VALID,0,VALID,87.6558,VALID,0,VALID,26.1959,VALID,357,VALID,0.433203,
2011-12-22, 01:45:04,VALID,998.776,VALID,0,VALID,87.7245,VALID,0,VALID,26.1765,VALID,333,VALID,0.512891,
2011-12-22, 01:46:04,VALID,998.751,VALID,0,VALID,87.7092,VALID,0,VALID,26.1765,VALID,344,VALID,0.644531,
2011-12-22, 01:47:04,VALID,998.751,VALID,0,VALID,87.9152,VALID,0,VALID,26.157,VALID,356,VALID,0.512891,
2011-12-22, 01:48:04,VALID,998.716,VALID,0,VALID,88.2051,VALID,0,VALID,26.118,VALID,356,VALID,0.469531,
2011-12-22, 01:49:04,VALID,998.725,VALID,0,VALID,88.1365,VALID,0,VALID,26.0791,VALID,8,VALID,0.684766,
2011-12-22, 01:50:04,VALID,998.734,VALID,0,VALID,88.3348,VALID,0,VALID,26.0985,VALID,3,VALID,0.623047,
2011-12-22, 01:51:04,VALID,998.705,VALID,0,VALID,88.5484,VALID,0,VALID,26.0596,VALID,4,VALID,0.649219,
2011-12-22, 01:52:04,VALID,998.719,VALID,0,VALID,88.6476,VALID,0,VALID,26.0401,VALID,5,VALID,0.561719,
2011-12-22, 01:53:04,VALID,998.706,VALID,0,VALID,88.5942,VALID,0,VALID,26.0206,VALID,5,VALID,0.445703,
2011-12-22, 01:54:04,VALID,998.716,VALID,0,VALID,88.6628,VALID,0,VALID,26.0206,VALID,353,VALID,0.629297,
2011-12-22, 01:55:04,VALID,998.704,VALID,0,VALID,88.8765,VALID,0,VALID,26.0206,VALID,354,VALID,0.81875,
2011-12-22, 01:56:04,VALID,998.706,VALID,0,VALID,88.7925,VALID,0,VALID,26.0206,VALID,360,VALID,0.646484,
2011-12-22, 01:57:04,VALID,998.705,VALID,0,VALID,88.7162,VALID,0,VALID,26.0206,VALID,358,VALID,0.578516,
2011-12-22, 01:58:04,VALID,998.684,VALID,0,VALID,88.6171,VALID,0,VALID,26.0206,VALID,344,VALID,0.949219,
2011-12-22, 01:59:04,VALID,998.713,VALID,0,VALID,88.5942,VALID,0,VALID,26.0596,VALID,334,VALID,0.737891,
2011-12-22, 02:00:04,VALID,998.713,VALID,0,VALID,88.5179,VALID,0,VALID,26.0596,VALID,337,VALID,0.353516,
2011-12-22, 02:01:04,VALID,998.721,VALID,0,VALID,88.4721,VALID,0,VALID,26.0791,VALID,340,VALID,0.479297,
2011-12-22, 02:02:04,VALID,998.716,VALID,0,VALID,88.3501,VALID,0,VALID,26.1005,VALID,341,VALID,0.451562,
2011-12-22, 02:03:04,VALID,998.741,VALID,0,VALID,88.2585,VALID,0,VALID,26.0985,VALID,341,VALID,0.379297,
2011-12-22, 02:04:04,VALID,998.737,VALID,0,VALID,88.228,VALID,0,VALID,26.1395,VALID,342,VALID,0.344922,
2011-12-22, 02:05:04,VALID,998.693,VALID,0,VALID,88.1746,VALID,0,VALID,26.1395,VALID,344,VALID,0.508984,
2011-12-22, 02:06:04,VALID,998.696,VALID,0,VALID,88.228,VALID,0,VALID,26.1395,VALID,2,VALID,0.0410156,
2011-12-22, 02:07:04,VALID,998.741,VALID,0,VALID,88.1975,VALID,0,VALID,26.1375,VALID,360,VALID,0.595312,
2011-12-22, 02:08:04,VALID,998.751,VALID,0,VALID,88.228,VALID,0,VALID,26.159,VALID,13,VALID,0.861328,
2011-12-22, 02:09:04,VALID,998.753,VALID,0,VALID,88.1975,VALID,0,VALID,26.1784,VALID,354,VALID,0.385938,
2011-12-22, 02:10:04,VALID,998.74,VALID,0,VALID,88.1441,VALID,0,VALID,26.1784,VALID,354,VALID,0.500391,
2011-12-22, 02:11:04,VALID,998.732,VALID,0,VALID,88.0754,VALID,0,VALID,26.1784,VALID,358,VALID,1.49336,
2011-12-22, 02:12:04,VALID,998.712,VALID,0,VALID,88.0525,VALID,0,VALID,26.1959,VALID,8,VALID,1.14375,
2011-12-22, 02:13:04,VALID,998.722,VALID,0,VALID,87.8923,VALID,0,VALID,26.2349,VALID,357,VALID,0.941016,
2011-12-22, 02:14:04,VALID,998.697,VALID,0,VALID,87.7703,VALID,0,VALID,26.2564,VALID,17,VALID,0.717578,
2011-12-22, 02:15:04,VALID,998.679,VALID,0,VALID,87.6482,VALID,0,VALID,26.2349,VALID,24,VALID,0.990625,
2011-12-22, 02:16:04,VALID,998.675,VALID,0,VALID,87.7321,VALID,0,VALID,26.2369,VALID,20,VALID,0.520312,
2011-12-22, 02:17:04,VALID,998.646,VALID,0,VALID,87.6863,VALID,0,VALID,26.1765,VALID,13,VALID,0.998828,
2011-12-22, 02:18:04,VALID,998.653,VALID,0,VALID,87.755,VALID,0,VALID,26.1979,VALID,10,VALID,0.532031,
2011-12-22, 02:19:04,VALID,998.661,VALID,0,VALID,87.7932,VALID,0,VALID,26.1979,VALID,351,VALID,0.31875,
2011-12-22, 02:20:04,VALID,998.655,VALID,0,VALID,87.8084,VALID,0,VALID,26.1765,VALID,350,VALID,0.528125,
2011-12-22, 02:21:04,VALID,998.626,VALID,0,VALID,87.8618,VALID,0,VALID,26.159,VALID,350,VALID,0.752734,
2011-12-22, 02:22:04,VALID,998.647,VALID,0,VALID,87.9228,VALID,0,VALID,26.116,VALID,340,VALID,1.14258,
2011-12-22, 02:23:04,VALID,998.609,VALID,0,VALID,88.0831,VALID,0,VALID,26.159,VALID,345,VALID,0.603125,
2011-12-22, 02:24:04,VALID,998.591,VALID,0,VALID,88.0144,VALID,0,VALID,26.118,VALID,13,VALID,0.934766,
2011-12-22, 02:25:04,VALID,998.566,VALID,0,VALID,88.0754,VALID,0,VALID,26.118,VALID,2,VALID,0.412109,
2011-12-22, 02:26:04,VALID,998.553,VALID,0,VALID,87.9305,VALID,0,VALID,26.1395,VALID,341,VALID,1.0043,
2011-12-22, 02:27:04,VALID,998.553,VALID,0,VALID,88.0296,VALID,0,VALID,26.12,VALID,346,VALID,0.44375,
2011-12-22, 02:28:04,VALID,998.553,VALID,0,VALID,87.961,VALID,0,VALID,26.0985,VALID,346,VALID,0.992188,
2011-12-22, 02:29:04,VALID,998.547,VALID,0,VALID,88.0525,VALID,0,VALID,26.118,VALID,11,VALID,0.905469,
2011-12-22, 02:30:04,VALID,998.54,VALID,0,VALID,87.9381,VALID,0,VALID,26.1375,VALID,344,VALID,0.614844,
2011-12-22, 02:31:04,VALID,998.542,VALID,0,VALID,87.9076,VALID,0,VALID,26.159,VALID,18,VALID,0.508984,
2011-12-22, 02:32:04,VALID,998.528,VALID,0,VALID,87.8694,VALID,0,VALID,26.118,VALID,12,VALID,0.371094,
2011-12-22, 02:33:04,VALID,998.532,VALID,0,VALID,87.9,VALID,0,VALID,26.1375,VALID,36,VALID,0.999219,
2011-12-22, 02:34:04,VALID,998.564,VALID,0,VALID,87.7703,VALID,0,VALID,26.1375,VALID,36,VALID,0.623438,
2011-12-22, 02:35:04,VALID,998.536,VALID,0,VALID,87.7092,VALID,0,VALID,26.159,VALID,14,VALID,0.967969,
2011-12-22, 02:36:04,VALID,998.562,VALID,0,VALID,87.7855,VALID,0,VALID,26.118,VALID,5,VALID,0.196484,
2011-12-22, 02:37:04,VALID,998.536,VALID,0,VALID,87.7855,VALID,0,VALID,26.1375,VALID,10,VALID,0.759375,
2011-12-22, 02:38:04,VALID,998.537,VALID,0,VALID,87.9152,VALID,0,VALID,26.0985,VALID,23,VALID,0.145703,
2011-12-22, 02:39:04,VALID,998.546,VALID,0,VALID,87.7779,VALID,0,VALID,26.0791,VALID,342,VALID,0.782422,
2011-12-22, 02:40:04,VALID,998.542,VALID,0,VALID,87.8923,VALID,0,VALID,26.0791,VALID,353,VALID,0.489453,
2011-12-22, 02:41:04,VALID,998.53,VALID,0,VALID,87.9305,VALID,0,VALID,26.0596,VALID,353,VALID,0.275391,
2011-12-22, 02:42:04,VALID,998.565,VALID,0,VALID,87.8847,VALID,0,VALID,26.0791,VALID,1,VALID,0.546484,
2011-12-22, 02:43:04,VALID,998.518,VALID,0,VALID,87.9152,VALID,0,VALID,26.0596,VALID,359,VALID,0.534375,
2011-12-22, 02:44:04,VALID,998.532,VALID,0,VALID,87.9,VALID,0,VALID,26.0791,VALID,35,VALID,0.778125,
2011-12-22, 02:45:04,VALID,998.544,VALID,0,VALID,87.5261,VALID,0,VALID,26.0985,VALID,15,VALID,1.39766,
2011-12-22, 02:46:04,VALID,998.527,VALID,0,VALID,87.5338,VALID,0,VALID,26.0771,VALID,12,VALID,1.07305,
2011-12-22, 02:47:04,VALID,998.534,VALID,0,VALID,87.6024,VALID,0,VALID,26.1395,VALID,20,VALID,0.560156,
2011-12-22, 02:48:04,VALID,998.524,VALID,0,VALID,87.5719,VALID,0,VALID,26.118,VALID,17,VALID,0.4375,
2011-12-22, 02:49:04,VALID,998.587,VALID,0,VALID,87.5567,VALID,0,VALID,26.0985,VALID,4,VALID,0.417578,
2011-12-22, 02:50:04,VALID,998.561,VALID,0,VALID,87.5795,VALID,0,VALID,26.0985,VALID,9,VALID,0.536719,
2011-12-22, 02:51:04,VALID,998.556,VALID,0,VALID,87.6711,VALID,0,VALID,26.0596,VALID,348,VALID,0.617578,
2011-12-22, 02:52:04,VALID,998.611,VALID,0,VALID,87.7932,VALID,0,VALID,26.0596,VALID,37,VALID,0.388672,
2011-12-22, 02:53:04,VALID,998.603,VALID,0,VALID,87.7245,VALID,0,VALID,26.0401,VALID,6,VALID,0.566406,
2011-12-22, 02:54:04,VALID,998.627,VALID,0,VALID,87.694,VALID,0,VALID,26.0401,VALID,82,VALID,0.781641,
2011-12-22, 02:55:04,VALID,998.599,VALID,0,VALID,87.7474,VALID,0,VALID,26.0401,VALID,33,VALID,0.705859,
2011-12-22, 02:56:04,VALID,998.622,VALID,0,VALID,87.7398,VALID,0,VALID,26.0401,VALID,31,VALID,0.326172,
2011-12-22, 02:57:04,VALID,998.637,VALID,0,VALID,87.755,VALID,0,VALID,25.9992,VALID,9,VALID,1.00352,
2011-12-22, 02:58:04,VALID,998.636,VALID,0,VALID,87.694,VALID,0,VALID,26.0206,VALID,4,VALID,0.975,
2011-12-22, 02:59:04,VALID,998.649,VALID,0,VALID,87.5261,VALID,0,VALID,26.0206,VALID,39,VALID,1.12031,
2011-12-22, 03:00:04,VALID,998.639,VALID,0,VALID,87.343,VALID,0.0815089,VALID,26.0381,VALID,10,VALID,1.29492,
2011-12-22, 03:01:04,VALID,998.65,VALID,0,VALID,87.2973,VALID,0.0815089,VALID,26.0576,VALID,36,VALID,0.755078,
2011-12-22, 03:02:04,VALID,998.637,VALID,0,VALID,87.2362,VALID,0.0815089,VALID,26.0771,VALID,12,VALID,0.837109,
2011-12-22, 03:03:04,VALID,998.618,VALID,0,VALID,87.1371,VALID,0.0815089,VALID,26.0556,VALID,2,VALID,0.826172,
2011-12-22, 03:04:04,VALID,998.628,VALID,0,VALID,87.1981,VALID,0.0815089,VALID,26.0556,VALID,350,VALID,0.527344,
2011-12-22, 03:05:04,VALID,998.608,VALID,0,VALID,87.0913,VALID,0.0815089,VALID,26.0771,VALID,19,VALID,0.802734,
2011-12-22, 03:06:04,VALID,998.629,VALID,0,VALID,87.0379,VALID,0.0815089,VALID,26.0966,VALID,14,VALID,0.992188,
2011-12-22, 03:07:04,VALID,998.598,VALID,0,VALID,86.8624,VALID,0.0815089,VALID,26.0966,VALID,22,VALID,1.01641,
2011-12-22, 03:08:04,VALID,998.585,VALID,0,VALID,86.9082,VALID,0.0815089,VALID,26.0946,VALID,28,VALID,0.275781,
2011-12-22, 03:09:04,VALID,998.587,VALID,0,VALID,86.6946,VALID,0,VALID,26.116,VALID,350,VALID,1.01641,
2011-12-22, 03:10:04,VALID,998.562,VALID,0,VALID,86.8167,VALID,0.0815089,VALID,26.116,VALID,8,VALID,0.377734,
2011-12-22, 03:11:04,VALID,998.568,VALID,0,VALID,86.687,VALID,0,VALID,26.0946,VALID,9,VALID,0.712891,
2011-12-22, 03:12:04,VALID,998.562,VALID,0,VALID,86.7861,VALID,0.0815089,VALID,26.116,VALID,355,VALID,0.674609,
2011-12-22, 03:13:04,VALID,998.556,VALID,0,VALID,86.687,VALID,0.0815089,VALID,26.1355,VALID,6,VALID,0.545703,
2011-12-22, 03:14:04,VALID,998.547,VALID,0,VALID,86.8548,VALID,0.0815089,VALID,26.155,VALID,53,VALID,0.579297,
2011-12-22, 03:15:04,VALID,998.577,VALID,0,VALID,86.7175,VALID,0,VALID,26.116,VALID,11,VALID,1.03711,
2011-12-22, 03:16:04,VALID,998.568,VALID,0,VALID,86.687,VALID,0,VALID,26.1765,VALID,355,VALID,0.555469,
2011-12-22, 03:17:04,VALID,998.524,VALID,0,VALID,86.3437,VALID,0,VALID,26.2154,VALID,5,VALID,0.773047,
2011-12-22, 03:18:04,VALID,998.519,VALID,0,VALID,86.2521,VALID,0,VALID,26.2134,VALID,341,VALID,0.719531,
2011-12-22, 03:19:04,VALID,998.488,VALID,0,VALID,86.1606,VALID,0,VALID,26.2739,VALID,14,VALID,0.637891,
2011-12-22, 03:20:04,VALID,998.509,VALID,0,VALID,86.0919,VALID,0,VALID,26.2933,VALID,4,VALID,0.540625,
2011-12-22, 03:21:04,VALID,998.484,VALID,0,VALID,86.0004,VALID,0,VALID,26.3343,VALID,11,VALID,0.794922,
2011-12-22, 03:22:04,VALID,998.507,VALID,0,VALID,86.0385,VALID,0,VALID,26.3128,VALID,28,VALID,0.203516,
2011-12-22, 03:23:04,VALID,998.54,VALID,0,VALID,86.0233,VALID,0,VALID,26.3323,VALID,22,VALID,0.021875,
2011-12-22, 03:24:04,VALID,998.56,VALID,0,VALID,85.9241,VALID,0,VALID,26.3128,VALID,22,VALID,0.210938,
2011-12-22, 03:25:04,VALID,998.625,VALID,0,VALID,86.214,VALID,0,VALID,26.3128,VALID,288,VALID,0.691797,
2011-12-22, 03:26:04,VALID,998.675,VALID,0,VALID,86.4886,VALID,0,VALID,26.3108,VALID,209,VALID,1.33047,
2011-12-22, 03:27:04,VALID,998.719,VALID,0,VALID,86.748,VALID,0,VALID,26.2933,VALID,203,VALID,0.922266,
2011-12-22, 03:28:04,VALID,998.703,VALID,0,VALID,86.5802,VALID,0,VALID,26.2544,VALID,164,VALID,0.273828,
2011-12-22, 03:29:04,VALID,998.692,VALID,0,VALID,86.2826,VALID,0,VALID,26.2564,VALID,164,VALID,0.13125,
2011-12-22, 03:30:04,VALID,998.711,VALID,0,VALID,85.9241,VALID,0,VALID,26.2134,VALID,187,VALID,0.589063,
2011-12-22, 03:31:04,VALID,998.693,VALID,0,VALID,86.4734,VALID,0,VALID,26.2154,VALID,173,VALID,1.43516,
2011-12-22, 03:32:04,VALID,998.724,VALID,0,VALID,86.5954,VALID,0,VALID,26.157,VALID,184,VALID,0.214844,
2011-12-22, 03:33:04,VALID,998.734,VALID,0,VALID,86.9235,VALID,0,VALID,26.1375,VALID,111,VALID,1.46523,
2011-12-22, 03:34:04,VALID,998.758,VALID,0,VALID,87.1066,VALID,0,VALID,26.116,VALID,136,VALID,1.35312,
2011-12-22, 03:35:04,VALID,998.725,VALID,0,VALID,87.3812,VALID,0,VALID,26.1375,VALID,177,VALID,1.60508,
2011-12-22, 03:36:04,VALID,998.76,VALID,0,VALID,87.0608,VALID,0,VALID,26.118,VALID,165,VALID,1.96055,
2011-12-22, 03:37:04,VALID,998.75,VALID,0,VALID,86.7938,VALID,0,VALID,26.1375,VALID,170,VALID,1.9375,
2011-12-22, 03:38:04,VALID,998.792,VALID,0,VALID,86.4581,VALID,0,VALID,26.157,VALID,164,VALID,1.6332,
2011-12-22, 03:39:04,VALID,998.809,VALID,0,VALID,87.0226,VALID,0,VALID,26.155,VALID,174,VALID,1.73125,
2011-12-22, 03:40:04,VALID,998.793,VALID,0,VALID,86.4505,VALID,0,VALID,26.1375,VALID,154,VALID,1.28828,
2011-12-22, 03:41:04,VALID,998.842,VALID,0,VALID,86.2674,VALID,0,VALID,26.118,VALID,106,VALID,0.517187,
2011-12-22, 03:42:04,VALID,998.885,VALID,0,VALID,86.6488,VALID,0,VALID,26.118,VALID,160,VALID,1.24414,
2011-12-22, 03:43:04,VALID,998.9,VALID,0,VALID,86.8777,VALID,0,VALID,26.118,VALID,176,VALID,1.09727,
2011-12-22, 03:44:04,VALID,998.913,VALID,0,VALID,86.8777,VALID,0,VALID,26.0401,VALID,172,VALID,2.53242,